Siemreap, Cambodia

2:11 PM ICT on August 29, 2016 (GMT +0700)
Siem Reap

Weather History for VDSR - December, 2012

Change the Weather History Date:

Wednesday, December 5, 2012

  Actual Average Record
Temperature  
Mean Temperature 82 °F -  
Max Temperature 89 °F - - ()
Min Temperature 75 °F - - ()
Cooling Degree Days 17    
Growing Degree Days 32 (Base 50)    
Moisture  
Dew Point 72 °F    
Average Humidity 69    
Maximum Humidity 89    
Minimum Humidity 49    
Precipitation  
Precipitation 0.00 in - - ()
Sea Level Pressure  
Sea Level Pressure 29.83 in    
Wind  
Wind Speed 2 mph ()    
Max Wind Speed 7 mph    
Max Gust Speed -    
Visibility 5.9 miles    
Events      
T = Trace of Precipitation, MM = Missing Value Source: Averaged Metar Reports

Daily Weather History Graph

Daily Weather History Graph

Search for Another Location

Airport or City:

Trip Planner

Search our weather history database for the weather conditions in past years. The results will help you decide how hot, cold, wet, or windy it might be!

Date:

Astronomy

Dec. 05, 2012 Rise Set
Actual Time 6:13 AM ICT 5:36 PM ICT
Civil Twilight 5:50 AM ICT 5:59 PM ICT
Nautical Twilight 5:24 AM ICT 6:25 PM ICT
Astronomical Twilight 4:58 AM ICT 6:52 PM ICT
Moon 11:09 PM ICT (12/5) 10:59 AM ICT (12/5)
Length of Visible Light 12h 08m
Length of Day
11h 22m
Waning Gibbous, 65% of the Moon is Illuminated
Dec 5
Waning Gibbous
Dec 6
Last Quarter
Dec 13
New
Dec 20
First Quarter
Dec 28
Full

Hourly Weather History & Observations

Time (ICT) Temp. Heat Index Dew Point Humidity Pressure Visibility Wind Dir Wind Speed Gust Speed Precip Events Conditions
12:00 AM 75.2 °F - 71.6 °F 89% 29.83 in 5.6 mi NE 1.2 mph - N/A   Unknown
7:00 AM 75.2 °F - 71.6 °F 89% 29.86 in 5.6 mi NNW 3.5 mph - N/A   Partly Cloudy
7:30 AM 75.2 °F - 71.6 °F 89% 29.86 in 5.6 mi Calm Calm - N/A   Partly Cloudy
8:00 AM 77.0 °F - 71.6 °F 83% 29.89 in 5.6 mi Variable 2.3 mph - N/A   Partly Cloudy
8:30 AM 80.6 °F 84.6 °F 71.6 °F 74% 29.89 in 5.6 mi Variable 3.5 mph - N/A   Partly Cloudy
9:00 AM 80.6 °F 83.9 °F 69.8 °F 70% 29.89 in 6.2 mi NNW 4.6 mph - N/A   Partly Cloudy
9:30 AM 82.4 °F 86.3 °F 69.8 °F 66% 29.89 in 6.2 mi Variable 3.5 mph - N/A   Partly Cloudy
10:00 AM 84.2 °F 88.4 °F 69.8 °F 62% 29.89 in 6.2 mi Variable 3.5 mph - N/A   Partly Cloudy
10:30 AM 86.0 °F 90.4 °F 69.8 °F 58% 29.86 in 6.2 mi Variable 2.3 mph - N/A   Partly Cloudy
11:00 AM 87.8 °F 91.4 °F 68.0 °F 52% 29.86 in 6.2 mi Variable 1.2 mph - N/A   Partly Cloudy
11:30 AM 87.8 °F 91.4 °F 68.0 °F 52% 29.86 in 6.2 mi Variable 1.2 mph - N/A   Partly Cloudy
12:00 PM 89.6 °F 94.7 °F 69.8 °F 52% 29.83 in 6.2 mi Variable 3.5 mph - N/A   Partly Cloudy
12:30 PM 89.6 °F 93.4 °F 68.0 °F 49% 29.83 in 6.2 mi ESE 5.8 mph - N/A   Partly Cloudy
1:00 PM 89.6 °F 96.2 °F 71.6 °F 55% 29.80 in 6.2 mi Variable 3.5 mph - N/A   Partly Cloudy
1:30 PM 89.6 °F 94.7 °F 69.8 °F 52% 29.77 in 6.2 mi Variable 1.2 mph - N/A   Partly Cloudy
2:00 PM 89.6 °F 94.7 °F 69.8 °F 52% 29.77 in 6.2 mi Variable 1.2 mph - N/A   Partly Cloudy
2:30 PM 87.8 °F 93.8 °F 71.6 °F 58% 29.77 in 6.2 mi SSW 6.9 mph - N/A   Partly Cloudy
3:00 PM 89.6 °F 96.2 °F 71.6 °F 55% 29.77 in 6.2 mi South 5.8 mph - N/A   Scattered Clouds
3:30 PM 89.6 °F 96.2 °F 71.6 °F 55% 29.77 in 6.2 mi SSW 5.8 mph - N/A   Scattered Clouds
4:00 PM 87.8 °F 93.8 °F 71.6 °F 58% 29.77 in 6.2 mi WSW 5.8 mph - N/A   Scattered Clouds
4:30 PM 87.8 °F 93.8 °F 71.6 °F 58% 29.77 in 6.2 mi WSW 5.8 mph - N/A   Scattered Clouds
5:30 PM 84.2 °F 89.6 °F 71.6 °F 66% 29.77 in 6.2 mi SSW 3.5 mph - N/A   Scattered Clouds
6:00 PM 82.4 °F 87.2 °F 71.6 °F 70% 29.80 in 6.2 mi SW 3.5 mph - N/A   Scattered Clouds
6:30 PM 82.4 °F 88.2 °F 73.4 °F 74% 29.80 in 5.6 mi Calm Calm - N/A   Partly Cloudy
7:00 PM 82.4 °F 88.2 °F 73.4 °F 74% 29.80 in 5.6 mi Calm Calm - N/A   Partly Cloudy
7:30 PM 80.6 °F 85.4 °F 73.4 °F 79% 29.83 in 5.6 mi Calm Calm - N/A   Partly Cloudy
8:00 PM 80.6 °F 85.4 °F 73.4 °F 79% 29.83 in 5.6 mi Calm Calm - N/A   Partly Cloudy
9:30 PM 78.8 °F - 75.2 °F 89% 29.83 in 5.6 mi Calm Calm - N/A   Partly Cloudy
10:00 PM 78.8 °F - 75.2 °F 89% 29.83 in 5.6 mi Calm Calm - N/A   Partly Cloudy
10:30 PM 78.8 °F - 75.2 °F 89% 29.83 in 5.6 mi Calm Calm - N/A   Partly Cloudy
11:00 PM 78.8 °F - 75.2 °F 89% 29.83 in 5.6 mi Calm Calm - N/A   Partly Cloudy
11:30 PM 78.8 °F - 75.2 °F 89% 29.83 in 5.6 mi Calm Calm - N/A   Partly Cloudy